Regional Weather Roundup
Issued by NWS

Home | Current Version | Previous Version | Graphics & Text | Print | Product List | Glossary On
Versions: 1 2 3 4 5 6 7 8 9 10 11 12 13 14 15 16 17 18 19 20 21 22 23 24 25 26 27 28 29 30 31 32 33 34 35 36 37 38 39 40 41 42 43 44 45 46 47 48 49 50
000
ASUS43 KFSD 011702
RWRSD

WEATHER ROUNDUP FOR SOUTH DAKOTA
NATIONAL WEATHER SERVICE SIOUX FALLS SD
1200 PM CDT WED JUL 01 2015

NOTE: "FAIR" INDICATES FEW OR NO CLOUDS BELOW 12,000 FEET WITH NO
SIGNIFICANT WEATHER AND/OR OBSTRUCTIONS TO VISIBILITY.


SDZ001>005-009-010-012>017-011800-
NORTHWEST AND NORTH CENTRAL SOUTH DAKOTA

CITY           SKY/WX    TMP DP  RH WIND       PRES   REMARKS
BUFFALO          N/A     71  62  73 NE7       29.95R
FAITH            N/A     73  65  75 VRB3      29.96S
MOBRIDGE       PTSUNNY   75  67  76 E8        29.91R
$$

SDZ012>016-024>037-041>051-057-063-072>074-011800-
SOUTHWEST AND SOUTH CENTRAL SOUTH DAKOTA

CITY           SKY/WX    TMP DP  RH WIND       PRES   REMARKS
RAPID CTY ARPT SUNNY     80  59  48 N23G30    29.99R HAZE
PIERRE         PTSUNNY   76  65  68 VRB5      29.89R
CUSTER         SUNNY     78  47  33 NW8       30.14S
ELLSWORTH AFB  SUNNY     80  60  51 N20       29.99S
PHILIP         CLOUDY    74  66  76 N9        29.94R
PINE RIDGE     SUNNY     82  62  50 N10       30.01R
WINNER         FAIR      81  64  56 NE5       29.90R
$$

SDZ004>011-016>023-039-040-011800-
NORTHEAST SOUTH DAKOTA

CITY           SKY/WX    TMP DP  RH WIND       PRES   REMARKS
ABERDEEN       PTSUNNY   73  65  75 SE8       29.93R
WATERTOWN      CLOUDY    65  60  84 VRB7      29.96S
BROOKINGS      PTSUNNY   66  57  72 E14       29.97S
SISSETON         N/A     68  61  78 S10       29.96R
$$

SDZ017-020-022-023-036>040-048>070-011800-
SOUTHEAST SOUTH DAKOTA

CITY           SKY/WX    TMP DP  RH WIND       PRES   REMARKS
SIOUX FALLS    PTSUNNY   69  63  81 SE12      29.94R
HURON          MOSUNNY   75  66  73 SE9       29.90F
CHAMBERLAIN    CLOUDY    74  65  74 SE10      29.91R
MITCHELL       PTSUNNY   74  67  78 SE12      29.91S
YANKTON        CLOUDY    72  64  78 E10       29.90R
$$

ABBREVIATIONS USED IN REMARKS
   TC - TEMPERATURE IN CELSIUS
  WCI - WIND CHILL INDEX
   HX - HEAT INDEX
  VSB - VISIBILITY



USA.gov is the U.S. government's official web portal to all federal, state and local government web resources and services.